Regional Weather Roundup
Issued by NWS

Home | Current Version | Previous Version | Text Only | Print | Product List | Glossary Off
Versions: 1 2 3 4 5 6 7 8 9 10 11 12 13 14 15 16 17 18 19 20 21 22 23 24 25 26 27 28 29 30 31 32 33 34 35 36 37 38 39 40 41 42 43 44 45 46 47 48 49 50

000
ASUS43 KLOT 200303
RWRIL

ILLINOIS REGIONAL WEATHER ROUNDUP
NATIONAL WEATHER SERVICE CHICAGO/ROMEOVILLE IL
1000 PM CDT TUE SEP 19 2017

NOTE: "FAIR" INDICATES FEW OR NO CLOUDS BELOW 12,000 FEET WITH NO
SIGNIFICANT WEATHER AND/OR OBSTRUCTIONS TO VISIBILITY.

* THESE STATIONS ARE NOT UNDER NWS QUALITY CONTROL. THEY ALSO MAY NOT
  REPORT WEATHER SUCH AS PRECIPITATION OR FOG.

ILZ001-002-007-009-015-016-024-200400-
NORTHWEST ILLINOIS

CITY           SKY/WX    TMP DP  RH WIND       PRES   REMARKS
MOLINE         CLEAR     69  64  84 E6        29.86R
STERLING*        N/A     64  63  96 E3        29.89S
SAVANNA*       CLEAR     66  63  92 SE5       29.88R
$$

ILZ003-004-008-010-011-017-018-200400-
NORTH CENTRAL ILLINOIS

CITY           SKY/WX    TMP DP  RH WIND       PRES   REMARKS
ROCKFORD       CLEAR     66  62  87 SE8       29.92R
FREEPORT*      CLEAR     64  62  93 E6        29.92R
ROCHELLE*      CLEAR     64  62  94 E6        29.92R
DE KALB*       CLEAR     64  62  96 E8        29.93S
PERU*          CLEAR     68  63  84 E9        29.90S
$$

ILZ005-006-012>014-019>023-200400-
NORTHEAST ILLINOIS

CITY           SKY/WX    TMP DP  RH WIND       PRES   REMARKS
CHICAGO-OHARE  CLEAR     68  62  81 E3        29.93R
CHICAGO-MIDWAY PTCLDY    69  64  84 E5        29.93R
AURORA         CLEAR     66  63  90 E7        29.92S
LANSING*       CLEAR     63  63 100 CALM      29.93S FOG
JOLIET*        CLEAR     68  65  92 E6        29.92F
WAUKEGAN       CLEAR     60  60 100 NE3       29.92F FOG
DUPAGE AIRPORT CLEAR     65  63  93 E3        29.92S FOG
KANKAKEE*      CLEAR     65  65  97 E5        29.93S
WHEELING       CLEAR     66  66 100 CALM      29.94S
MORRIS*        CLEAR     65  63  93 E6        29.91S
ROMEOVILLE*    CLEAR     65  63  92 E6        29.92S
NORTHERLY ISL    N/A     67  64  90 NE6         N/A
$$

LMZ740>746-200400-
SOUTHERN LAKE MICHIGAN

STATION/POSITION SKY/WX   TEMP    WIND        PRES    VSBY  WAVE
                          AIR SEA DIR/SP/G                  HT/PER
                          (F)     (DEG/KT/KT) (MB)    (MI)  (FT/S)
SOUTHERN BUOY              69 69   40/  6/  8 1013.5          0
WILMETTE HARBOR            69 69   70/  6/ 10   N/A           1/ 4
HARRISON CRIB              69      50/  5/  6   N/A
CALUMET HARBOR             68      40/  4/  4 1012.9R
BURNS HARBOR               68      90/  4/  5 1014.2R
MICHIGAN CITY              66      70/  4/  4   N/A
MICHIGAN CITY 6N           68 69  110/  4/  6   N/A           1/ 3
ST. JOSEPH                 67 69  180/  4/  4 1013.7R         1
$$

ILZ025>027-034>036-040-047-049-050-058-095>099-200400-
WEST-CENTRAL ILLINOIS

CITY           SKY/WX    TMP DP  RH WIND       PRES   REMARKS
QUINCY         CLEAR     72  66  81 SE7       29.84S
GALESBURG*     CLEAR     68  64  86 SE3       29.89R
MACOMB*        CLEAR     68  66  92 SE5       29.88S
PITTSFIELD*    CLEAR     71  66  84 SE6       29.87S
$$

ILZ028>032-037-038-041>044-048-051>054-059>061-200400-
CENTRAL ILLINOIS

CITY           SKY/WX    TMP DP  RH WIND       PRES   REMARKS
BLOOMINGTON    CLEAR     67  63  87 E9        29.91F
DECATUR        CLEAR     69  66  90 SE6       29.90S
PEORIA         CLEAR     72  65  78 E5        29.88S
LACON*         CLEAR     69  64  84 E5        29.88S
LINCOLN*       CLEAR     70  66  87 CALM      29.90R
SPRINGFIELD    CLEAR     74  66  76 SE8       29.88S
TAYLORVILLE    NOT AVBL
$$

ILZ033-039-045-046-055>057-062-063-200400-
EAST-CENTRAL ILLINOIS

CITY           SKY/WX    TMP DP  RH WIND       PRES   REMARKS
CHAMPAIGN      CLEAR     67  63  87 E3        29.92S
RANTOUL*       CLEAR     70  66  88 CALM      29.92R
MATTOON        CLEAR     70  66  87 SE5       29.90S
PARIS*         CLEAR     66  64  94 E3        29.92S
$$

ILZ079-100>102-200400-
SOUTHWEST ILLINOIS

CITY           SKY/WX    TMP DP  RH WIND       PRES   REMARKS
ALTON          CLEAR     72  68  88 CALM      29.88S
BELLEVILLE     CLEAR     74  64  73 S1        29.89F
CAHOKIA*       CLEAR     79  67  66 SE7       29.87R HX  81
SPARTA*        CLEAR     75  68  79 SE5       29.91R
$$

ILZ064>066-069>071-074>076-080>082-084>086-088>090-092>094-200400-
SOUTH-CENTRAL ILLINOIS

CITY           SKY/WX    TMP DP  RH WIND       PRES   REMARKS
CARBONDALE     CLEAR     72  70  93 SE5       29.90R
CAIRO*         PTCLDY    72  72  99 CALM      29.90S
EFFINGHAM*     CLEAR     70  68  93 SE3       29.92S
MARION         CLEAR     75  72  88 SE5       29.92S
CENTRALIA*     CLEAR     72  68  89 SE3       29.90R
SALEM*         CLEAR     77  67  71 CALM      29.90S
METROPOLIS*    CLEAR     72  70  93 CALM      29.92S
$$

ILZ067-068-072-073-078-083-087-091-200400-
SOUTHEAST ILLINOIS

CITY           SKY/WX    TMP DP  RH WIND       PRES   REMARKS
LAWRENCEVILLE  CLEAR     71  69  93 S5        29.92R
FLORA*         CLEAR     71  68  88 SE3       29.91S
FAIRFIELD*     CLEAR     70  68  93 CALM      29.90R
HARRISBURG*    CLEAR     71  69  95 CALM      29.92R
ROBINSON*      CLEAR     67  65  94 CALM      29.92R
CARMI*         CLEAR     68  68  98 S5        29.91R
$$

ABBREVIATIONS USED IN REMARKS
   TC - TEMPERATURE IN CELSIUS
  WCI - WIND CHILL INDEX
   HX - HEAT INDEX
  VSB - VISIBILITY
$$





USA.gov is the U.S. government's official web portal to all federal, state and local government web resources and services.